sat.trackr.live / text

‹ back to catalog

STARLINK-30942

NORAD 58441 · 2023-183E

PAYLOAD ACTIVE UNKNOWN

§ Identity

Operator
Country
US
Launch date
2023-11-28
Launch site
AFETR
Launch vehicle
Mass (kg)
RCS (m²)

Purposes: comms

External: N2YO · Heavens-Above · Gunter

§ Orbital elements

Epoch: 2026-05-24T21:26:50.655840Z

Period
94.27 min
Inclination
43.0032°
Eccentricity
0.0000960
Mean motion
15.27576738 rev/d
Perigee alt
482.4 km
Apogee alt
483.7 km
Semi-major
6,861.2 km
B*
1.5018e-5
RAAN
330.8422°
Arg perigee
264.0188°
Mean anomaly
96.0554°
Rev number
13,839

§ Raw data

STARLINK-309421 58441U 23183E   26144.89364185  .00000151  00000+0  15018-4 0  99952 58441  43.0032 330.8422 0000960 264.0188  96.0554 15.27576738138396

JSON: /api/v1/satellites/58441 · /tle

For live sub-satellite position, see the globe view (requires WebGL).

§ Visibility from observer

Set your observer location to see the next 7 days of passes ≥ 10°. The values pass through the URL so the page stays shareable.

No JS? Fill the form by hand. The geolocation button needs JavaScript.